Tillbaka till svenska Fidonet
English   Information   Debug  
FILM   0/18
FNEWS_PUBLISH   4881
FN_SYSOP   42085
FN_SYSOP_OLD1   71952
FTP_FIDO   0/2
FTSC_PUBLIC   0/13950
FUNNY   0/4886
GENEALOGY.EUR   0/71
GET_INFO   105
GOLDED   0/408
HAM   3895/16617
HOLYSMOKE   0/6791
HOT_SITES   0/1
HTMLEDIT   0/71
HUB203   466
HUB_100   264
HUB_400   39
HUMOR   0/29
IC   2781/2851
INTERNET   0/424
INTERUSER   0/3
IP_CONNECT   719
JAMNNTPD   0/233
JAMTLAND   0/47
KATTY_KORNER   0/41
LAN   0/16
LINUX-USER   0/19
LINUXHELP   0/1155
LINUX   0/22287
LINUX_BBS   0/957
mail   18.68
mail_fore_ok   249
MENSA   0/341
MODERATOR   0/102
MONTE   0/992
MOSCOW_OKLAHOMA   0/1245
MUFFIN   0/783
MUSIC   0/321
N203_STAT   938
N203_SYSCHAT   313
NET203   321
NET204   69
NET_DEV   0/10
NORD.ADMIN   0/101
NORD.CHAT   0/2572
NORD.FIDONET   189
NORD.HARDWARE   0/28
NORD.KULTUR   0/114
NORD.PROG   0/32
NORD.SOFTWARE   0/88
NORD.TEKNIK   0/58
NORD   0/453
OCCULT_CHAT   0/93
OS2BBS   0/787
OS2DOSBBS   0/580
OS2HW   0/42
OS2INET   0/37
OS2LAN   0/134
OS2PROG   0/36
OS2REXX   0/113
OS2USER-L   207
OS2   0/4829
OSDEBATE   11519/18996
PASCAL   0/490
PERL   0/457
PHP   0/45
POINTS   0/405
POLITICS   0/29554
POL_INC   11437/14731
PSION   103
R20_ADMIN   1133
R20_AMATORRADIO   0/2
R20_BEST_OF_FIDONET   16
R20_CHAT   0/896
R20_DEPP   0/3
R20_DEV   400
R20_ECHO2   1789
R20_ECHOPRES   0/35
R20_ESTAT   0/719
R20_FIDONETPROG...
...RAM.MYPOINT
  0/2
R20_FIDONETPROGRAM   0/22
R20_FIDONET   0/248
R20_FILEFIND   0/24
R20_FILEFOUND   0/22
R20_HIFI   0/3
R20_INFO2   3681
R20_INTERNET   0/12940
R20_INTRESSE   0/60
R20_INTR_KOM   0/99
R20_KANDIDAT.CHAT   42
R20_KANDIDAT   28
R20_KOM_DEV   112
R20_KONTROLL   0/13360
R20_KORSET   0/18
R20_LOKALTRAFIK   0/24
R20_MODERATOR   0/1852
R20_NC   76
R20_NET200   245
R20_NETWORK.OTH...
...ERNETS
  0/13
R20_OPERATIVSYS...
...TEM.LINUX
  0/44
R20_PROGRAMVAROR   0/1
R20_REC2NEC   534
R20_SFOSM   0/341
R20_SF   0/108
R20_SPRAK.ENGLISH   0/1
R20_SQUISH   107
R20_TEST   2
R20_WORST_OF_FIDONET   20
RAR   0/9
RA_MULTI   106
RA_UTIL   0/162
REGCON.EUR   0/2067
REGCON   0/13
SCIENCE   0/1206
SF   0/239
SHAREWARE_SUPPORT   0/5146
SHAREWRE   0/14
SIMPSONS   0/169
STATS_OLD1   0/2539.065
STATS_OLD2   0/2530
STATS_OLD3   0/2395.095
STATS_OLD4   0/1692.25
SURVIVOR   0/495
SYSOPS_CORNER   0/3
SYSOP   0/84
TAGLINES   0/112
TEAMOS2   0/4530
TECH   0/2617
TEST.444   0/105
TRAPDOOR   0/19
TREK   0/755
TUB   0/290
UFO   0/40
UNIX   0/1316
USA_EURLINK   0/102
USR_MODEMS   0/1
VATICAN   0/2740
VIETNAM_VETS   0/14
VIRUS   0/378
VIRUS_INFO   0/201
VISUAL_BASIC   0/473
WHITEHOUSE   0/5187
WIN2000   0/101
WIN32   0/30
WIN95   0/4291
WIN95_OLD1   0/70272
WINDOWS   0/1517
WWB_SYSOP   0/419
WWB_TECH   0/810
ZCC-PUBLIC   0/1
ZEC   4

 
4DOS   0/134
ABORTION   0/7
ALASKA_CHAT   0/506
ALLFIX_FILE   0/1313
ALLFIX_FILE_OLD1   0/7997
ALT_DOS   0/152
AMATEUR_RADIO   0/1039
AMIGASALE   0/14
AMIGA   0/331
AMIGA_INT   0/1
AMIGA_PROG   0/20
AMIGA_SYSOP   0/26
ANIME   0/15
ARGUS   0/924
ASCII_ART   0/340
ASIAN_LINK   0/651
ASTRONOMY   0/417
AUDIO   0/92
AUTOMOBILE_RACING   0/105
BABYLON5   0/17862
BAG   135
BATPOWER   0/361
BBBS.ENGLISH   0/382
BBSLAW   0/109
BBS_ADS   0/5290
BBS_INTERNET   0/507
BIBLE   0/3563
BINKD   0/1119
BINKLEY   0/215
BLUEWAVE   0/2173
CABLE_MODEMS   0/25
CBM   0/46
CDRECORD   0/66
CDROM   0/20
CLASSIC_COMPUTER   0/378
COMICS   0/15
CONSPRCY   0/899
COOKING   41026
COOKING_OLD1   0/24719
COOKING_OLD2   0/40862
COOKING_OLD3   0/37489
COOKING_OLD4   0/35496
COOKING_OLD5   9370
C_ECHO   0/189
C_PLUSPLUS   0/31
DIRTY_DOZEN   0/201
DOORGAMES   0/2253
DOS_INTERNET   0/196
duplikat   6102
ECHOLIST   0/18295
EC_SUPPORT   130/318
ELECTRONICS   0/359
ELEKTRONIK.GER   1534
ENET.LINGUISTIC   0/13
ENET.POLITICS   0/4
ENET.SOFT   0/11701
ENET.SYSOP   34255
ENET.TALKS   0/32
ENGLISH_TUTOR   0/2000
EVOLUTION   0/1335
FDECHO   0/217
FDN_ANNOUNCE   0/7068
FIDONEWS   24978
FIDONEWS_OLD1   0/49742
FIDONEWS_OLD2   20924/35949
FIDONEWS_OLD3   0/30874
FIDONEWS_OLD4   0/37224
FIDO_SYSOP   12920
FIDO_UTIL   0/180
FILEFIND   0/209
FILEGATE   0/212
Möte HAM, 16617 texter
 lista första sista föregående nästa
Text 1123, 766 rader
Skriven 2006-07-21 03:00:42 av Amsat List (1:323/120.0)
Ärende: [keps] orb06201.amsa
============================
[keps] orb06201.amsa


SB KEPS @ AMSAT  $ORB06201.O
Orbital Elements  06201.OSCAR

HR AMSAT ORBITAL ELEMENTS FOR OSCAR SATELLITES
FROM WA5QGD FORT WORTH,TX July 20, 2006
Send SUBSCRIBE KEPS/UNSUBSCRIBE KEPS to majordomo@amsat.org only
BID: ORB06201.O
TO ALL RADIO AMATEURS BT

Satellite: AO-07
Catalog number: 07530
Epoch time:      06200.66778389
Element set:    0635
Inclination:      101.5655 deg
RA of node:       242.7848 deg
Eccentricity:    0.0012033
Arg of perigee:   182.0653 deg
Mean anomaly:     178.0366 deg
Mean motion:   12.53571638 rev/day
Decay rate:       -2.8e-07 rev/day^2
Epoch rev:           44945
Checksum:              310

Satellite: AO-10
Catalog number: 14129
Epoch time:      06198.40165759
Element set:    0296
Inclination:      027.3844 deg
RA of node:       325.0259 deg
Eccentricity:    0.6032786
Arg of perigee:   301.9022 deg
Mean anomaly:     013.2136 deg
Mean motion:   02.05869236 rev/day
Decay rate:      -6.08e-06 rev/day^2
Epoch rev:           17367
Checksum:              305

Satellite: UO-11
Catalog number: 14781
Epoch time:      06200.58079865
Element set:     126
Inclination:      098.2076 deg
RA of node:       211.4848 deg
Eccentricity:    0.0009710
Arg of perigee:   155.3286 deg
Mean anomaly:     204.8386 deg
Mean motion:   14.79441955 rev/day
Decay rate:      -1.55e-06 rev/day^2
Epoch rev:           20055
Checksum:              309

Satellite: RS-10/11
Catalog number: 18129
Epoch time:      06200.83786952
Element set:    0058
Inclination:      082.9258 deg
RA of node:       304.0057 deg
Eccentricity:    0.0012390
Arg of perigee:   010.2492 deg
Mean anomaly:     349.8913 deg
Mean motion:   13.72776555 rev/day
Decay rate:        3.6e-07 rev/day^2
Epoch rev:           95563
Checksum:              312

Satellite: RS-15
Catalog number: 23439
Epoch time:      06200.47720615
Element set:    0015
Inclination:      064.8146 deg
RA of node:       185.0002 deg
Eccentricity:    0.0167307
Arg of perigee:   248.4624 deg
Mean anomaly:     109.8393 deg
Mean motion:   11.27552571 rev/day
Decay rate:       -3.9e-07 rev/day^2
Epoch rev:           47618
Checksum:              291

Satellite: FO-29
Catalog number: 24278
Epoch time:      06200.56162867
Element set:    0278
Inclination:      098.5089 deg
RA of node:       200.6119 deg
Eccentricity:    0.0349874
Arg of perigee:   225.7047 deg
Mean anomaly:     131.4908 deg
Mean motion:   13.52922092 rev/day
Decay rate:       -4.3e-07 rev/day^2
Epoch rev:           48992
Checksum:              332

Satellite: SO-33
Catalog number: 25509
Epoch time:      06200.60056667
Element set:     701
Inclination:      031.4337 deg
RA of node:       306.0554 deg
Eccentricity:    0.0355082
Arg of perigee:   039.8414 deg
Mean anomaly:     322.7722 deg
Mean motion:   14.28111311 rev/day
Decay rate:       1.35e-06 rev/day^2
Epoch rev:           40367
Checksum:              262

Satellite: AO-40
Catalog number: 26609
Epoch time:      06201.65364350
Element set:     756
Inclination:      006.3238 deg
RA of node:       230.5773 deg
Eccentricity:    0.7953415
Arg of perigee:   182.4635 deg
Mean anomaly:     165.5291 deg
Mean motion:   01.25583888 rev/day
Decay rate:      .00000000 rev/day^2
Epoch rev:            2627
Checksum:              295

Satellite: VO-52
Catalog number: 28650
Epoch time:      06200.68375415
Element set:    0382
Inclination:      097.8692 deg
RA of node:       273.1399 deg
Eccentricity:    0.0026156
Arg of perigee:   255.6445 deg
Mean anomaly:     104.1877 deg
Mean motion:   14.81142792 rev/day
Decay rate:      -2.29e-06 rev/day^2
Epoch rev:           06519
Checksum:              326

/EX
SB KEPS @ AMSAT  $ORB06201.D
Orbital Elements  06201.MICROS

HR AMSAT ORBITAL ELEMENTS FOR THE MICROSATS
FROM WA5QGD FORT WORTH,TX July 20, 2006
Send SUBSCRIBE KEPS/UNSUBSCRIBE KEPS to majordomo@amsat.org only
BID: ORB06201.D
TO ALL RADIO AMATEURS BT

Satellite: AO-16
Catalog number: 20439
Epoch time:      06200.92611572
Element set:    0800
Inclination:      098.1866 deg
RA of node:       209.0271 deg
Eccentricity:    0.0011911
Arg of perigee:   095.0541 deg
Mean anomaly:     265.2001 deg
Mean motion:   14.31727322 rev/day
Decay rate:       -2.4e-07 rev/day^2
Epoch rev:           86100
Checksum:              251

Satellite: WO-18
Catalog number: 20441
Epoch time:      06200.56150191
Element set:    0000
Inclination:      098.1855 deg
RA of node:       213.3043 deg
Eccentricity:    0.0012644
Arg of perigee:   097.1094 deg
Mean anomaly:     263.1531 deg
Mean motion:   14.31797647 rev/day
Decay rate:       -1.0e-07 rev/day^2
Epoch rev:           86101
Checksum:              254

Satellite: LO-19
Catalog number: 20442
Epoch time:      06200.60133542
Element set:     736
Inclination:      098.1881 deg
RA of node:       218.2130 deg
Eccentricity:    0.0012952
Arg of perigee:   095.9800 deg
Mean anomaly:     264.2875 deg
Mean motion:   14.31970225 rev/day
Decay rate:       -6.9e-07 rev/day^2
Epoch rev:           86109
Checksum:              291

Satellite: UO-22
Catalog number: 21575
Epoch time:      06200.85677149
Element set:     752
Inclination:      098.2967 deg
RA of node:       157.5384 deg
Eccentricity:    0.0007400
Arg of perigee:   341.3877 deg
Mean anomaly:     018.7038 deg
Mean motion:   14.39555912 rev/day
Decay rate:        2.9e-07 rev/day^2
Epoch rev:           78771
Checksum:              334

Satellite: KO-23
Catalog number: 22077
Epoch time:      06200.63667269
Element set:    0848
Inclination:      066.0844 deg
RA of node:       034.0884 deg
Eccentricity:    0.0002866
Arg of perigee:   352.0071 deg
Mean anomaly:     008.0903 deg
Mean motion:   12.86437257 rev/day
Decay rate:       -3.7e-07 rev/day^2
Epoch rev:           65471
Checksum:              301

